| time (UTC) | temp C | wind direction | speed KPH | gust KPH | rain 1hr cm | rain 24hr cm | rain mn cm | humidity % | barometer mb |
| 20260509074548 | 11 | 180 | 6.4 | 17.7 | 0.00 | 0.00 | 0.00 | 78 | 1003.6 |
| 20260509073047 | 11 | 215 | 4.8 | 16.1 | 0.00 | 0.00 | 0.00 | 76 | 1003.8 |
| 20260509071542 | 11 | 209 | 6.4 | 16.1 | 0.00 | 0.00 | 0.00 | 74 | 1004.1 |
| 20260509070049 | 11 | 242 | 6.4 | 14.5 | 0.00 | 0.00 | 0.00 | 72 | 1004.4 |
| 20260509064555 | 11 | 184 | 4.8 | 14.5 | 0.00 | 0.00 | 0.00 | 68 | 1004.4 |
| 20260509063048 | 10 | 211 | 6.4 | 14.5 | 0.00 | 0.00 | 0.00 | 62 | 1004.5 |
| 20260509061549 | 10 | 215 | 3.2 | 11.3 | 0.00 | 0.00 | 0.00 | 53 | 1004.8 |
| 20260509060047 | 10 | 167 | 4.8 | 17.7 | 0.00 | 0.00 | 0.00 | 47 | 1004.8 |
| 20260509054550 | 10 | 134 | 4.8 | 14.5 | 0.00 | 0.00 | 0.00 | 43 | 1004.9 |
| 20260509053043 | 10 | 180 | 4.8 | 14.5 | 0.00 | 0.00 | 0.00 | 41 | 1005.0 |
| 20260509051559 | 10 | 115 | 6.4 | 17.7 | 0.00 | 0.00 | 0.00 | 40 | 1005.0 |
| 20260509050050 | 11 | 159 | 6.4 | 16.1 | 0.00 | 0.00 | 0.00 | 38 | 1004.9 |
| 20260509044544 | 11 | 164 | 6.4 | 19.3 | 0.00 | 0.00 | 0.00 | 38 | 1005.1 |
| 20260509043049 | 11 | 232 | 6.4 | 16.1 | 0.00 | 0.00 | 0.00 | 37 | 1005.1 |
| 20260509041551 | 11 | 160 | 4.8 | 14.5 | 0.00 | 0.00 | 0.00 | 37 | 1005.2 |
| 20260509040055 | 11 | 158 | 3.2 | 8.0 | 0.00 | 0.00 | 0.00 | 37 | 1005.4 |
| 20260509034550 | 11 | 155 | 3.2 | 12.9 | 0.00 | 0.00 | 0.00 | 36 | 1005.6 |
| 20260509033044 | 11 | 171 | 3.2 | 11.3 | 0.00 | 0.00 | 0.00 | 35 | 1005.7 |
| 20260509031547 | 11 | 176 | 3.2 | 8.0 | 0.00 | 0.00 | 0.00 | 35 | 1005.7 |
| 20260509030044 | 11 | 161 | 3.2 | 9.7 | 0.00 | 0.00 | 0.00 | 35 | 1005.9 |
| 20260509024548 | 10 | 171 | 3.2 | 9.7 | 0.00 | 0.00 | 0.00 | 35 | 1006.2 |
| 20260509023047 | 10 | 187 | 1.6 | 8.0 | 0.00 | 0.00 | 0.00 | 35 | 1006.4 |
| 20260509021543 | 10 | 195 | 1.6 | 4.8 | 0.00 | 0.00 | 0.00 | 35 | 1006.4 |
| 20260509020052 | 9 | 143 | 1.6 | 3.2 | 0.00 | 0.00 | 0.00 | 41 | 1006.4 |
| 20260509014546 | 10 | 163 | 0.0 | 3.2 | 0.00 | 0.00 | 0.00 | 43 | 1006.2 |
| 20260509013055 | 10 | 0 | 0.0 | 3.2 | 0.00 | 0.00 | 0.00 | 41 | 1006.3 |
| 20260509011546 | 11 | 163 | 0.0 | 3.2 | 0.00 | 0.00 | 0.00 | 43 | 1006.1 |
| 20260509010043 | 12 | 186 | 0.0 | 3.2 | 0.00 | 0.00 | 0.00 | 39 | 1006.2 |
| 20260509004549 | 13 | 186 | 0.0 | 3.2 | 0.00 | 0.00 | 0.00 | 30 | 1006.1 |
| 20260509003050 | 14 | 186 | 0.0 | 3.2 | 0.00 | 0.00 | 0.00 | 28 | 1006.1 |
| 20260509001552 | 15 | 215 | 1.6 | 4.8 | 0.00 | 0.00 | 0.00 | 26 | 1006.2 |
| 20260509000049 | 15 | 187 | 4.8 | 8.0 | 0.00 | 0.00 | 0.00 | 24 | 1006.6 |
| 20260508234550 | 16 | 225 | 3.2 | 9.7 | 0.00 | 0.00 | 0.00 | 24 | 1006.6 |
| 20260508233101 | 16 | 229 | 8.0 | 14.5 | 0.00 | 0.00 | 0.00 | 24 | 1006.9 |
| 20260508231552 | 16 | 279 | 4.8 | 14.5 | 0.00 | 0.00 | 0.00 | 28 | 1006.9 |
| 20260508230056 | 17 | 257 | 9.7 | 16.1 | 0.00 | 0.00 | 0.00 | 25 | 1007.0 |
| 20260508224605 | 17 | 273 | 4.8 | 12.9 | 0.00 | 0.00 | 0.00 | 28 | 1006.9 |
| 20260508223044 | 17 | 295 | 6.4 | 19.3 | 0.00 | 0.00 | 0.00 | 28 | 1007.0 |
| 20260508221552 | 17 | 290 | 4.8 | 14.5 | 0.00 | 0.00 | 0.00 | 27 | 1007.1 |
| 20260508220055 | 17 | 274 | 9.7 | 17.7 | 0.00 | 0.00 | 0.00 | 26 | 1007.0 |
| 20260508214547 | 17 | 261 | 8.0 | 16.1 | 0.00 | 0.00 | 0.00 | 26 | 1007.1 |
| 20260508213047 | 18 | 238 | 6.4 | 14.5 | 0.00 | 0.00 | 0.00 | 29 | 1007.1 |
| 20260508211544 | 17 | 266 | 6.4 | 19.3 | 0.00 | 0.00 | 0.00 | 27 | 1007.3 |
| 20260508210050 | 17 | 194 | 6.4 | 16.1 | 0.00 | 0.00 | 0.00 | 31 | 1007.3 |
| 20260508204553 | 17 | 306 | 8.0 | 17.7 | 0.00 | 0.00 | 0.00 | 29 | 1007.4 |
| 20260508203055 | 17 | 313 | 12.9 | 17.7 | 0.00 | 0.00 | 0.00 | 29 | 1007.7 |
| 20260508201543 | 17 | 265 | 4.8 | 16.1 | 0.00 | 0.00 | 0.00 | 27 | 1007.9 |
| 20260508200054 | 17 | 261 | 8.0 | 19.3 | 0.00 | 0.00 | 0.00 | 28 | 1008.1 |
| 20260508194542 | 17 | 294 | 11.3 | 19.3 | 0.00 | 0.00 | 0.00 | 27 | 1008.3 |
| 20260508193049 | 17 | 271 | 6.4 | 16.1 | 0.00 | 0.00 | 0.00 | 29 | 1008.3 |
| 20260508191552 | 16 | 296 | 12.9 | 20.9 | 0.00 | 0.00 | 0.00 | 29 | 1008.6 |
| 20260508190051 | 16 | 257 | 6.4 | 17.7 | 0.00 | 0.00 | 0.00 | 29 | 1008.6 |
| 20260508184553 | 17 | 210 | 11.3 | 20.9 | 0.00 | 0.00 | 0.00 | 28 | 1008.7 |
| 20260508183050 | 16 | 275 | 9.7 | 19.3 | 0.00 | 0.00 | 0.00 | 31 | 1008.9 |
| 20260508181551 | 17 | 275 | 6.4 | 19.3 | 0.00 | 0.00 | 0.00 | 29 | 1009.0 |
| 20260508180049 | 16 | 275 | 11.3 | 19.3 | 0.00 | 0.00 | 0.00 | 30 | 1009.1 |
| 20260508174555 | 16 | 290 | 6.4 | 22.5 | 0.00 | 0.00 | 0.00 | 26 | 1009.3 |
| 20260508173046 | 16 | 233 | 9.7 | 14.5 | 0.00 | 0.00 | 0.00 | 30 | 1009.7 |
| 20260508171546 | 16 | 257 | 9.7 | 16.1 | 0.00 | 0.00 | 0.00 | 31 | 1009.7 |
| 20260508170052 | 16 | 331 | 6.4 | 22.5 | 0.00 | 0.00 | 0.00 | 35 | 1009.8 |
| 20260508164549 | 15 | 302 | 9.7 | 19.3 | 0.00 | 0.00 | 0.00 | 36 | 1010.1 |
| 20260508163043 | 15 | 240 | 6.4 | 14.5 | 0.00 | 0.00 | 0.00 | 36 | 1010.3 |
| 20260508161547 | 15 | 273 | 6.4 | 16.1 | 0.00 | 0.00 | 0.00 | 33 | 1010.4 |
| 20260508160052 | 15 | 350 | 4.8 | 17.7 | 0.00 | 0.00 | 0.00 | 36 | 1010.6 |
| 20260508154549 | 15 | 171 | 6.4 | 16.1 | 0.00 | 0.00 | 0.00 | 37 | 1010.5 |
| 20260508153050 | 14 | 209 | 8.0 | 17.7 | 0.00 | 0.00 | 0.00 | 42 | 1010.6 |
| 20260508151550 | 14 | 246 | 9.7 | 16.1 | 0.00 | 0.00 | 0.00 | 39 | 1010.6 |
| 20260508150043 | 14 | 149 | 1.6 | 12.9 | 0.00 | 0.00 | 0.00 | 45 | 1010.7 |
| 20260508144552 | 13 | 207 | 6.4 | 9.7 | 0.00 | 0.00 | 0.00 | 42 | 1010.9 |
| 20260508143052 | 13 | 203 | 6.4 | 12.9 | 0.00 | 0.00 | 0.00 | 52 | 1010.8 |
| 20260508141548 | 12 | 142 | 3.2 | 8.0 | 0.00 | 0.00 | 0.00 | 57 | 1010.9 |
| 20260508140052 | 12 | 172 | 4.8 | 11.3 | 0.00 | 0.00 | 0.00 | 60 | 1011.1 |
| 20260508134547 | 11 | 213 | 1.6 | 11.3 | 0.00 | 0.00 | 0.00 | 64 | 1011.1 |
| 20260508133046 | 11 | 239 | 6.4 | 9.7 | 0.00 | 0.00 | 0.00 | 64 | 1011.2 |
| 20260508131550 | 10 | 221 | 1.6 | 9.7 | 0.00 | 0.00 | 0.00 | 70 | 1011.3 |
| 20260508124553 | 9 | 240 | 4.8 | 6.4 | 0.00 | 0.00 | 0.00 | 72 | 1011.4 |
| 20260508123054 | 7 | 246 | 1.6 | 4.8 | 0.00 | 0.00 | 0.00 | 75 | 1011.4 |
| 20260508121606 | 6 | 194 | 0.0 | 3.2 | 0.00 | 0.00 | 0.00 | 80 | 1011.2 |
| 20260508120051 | 5 | 194 | 0.0 | 1.6 | 0.00 | 0.00 | 0.00 | 87 | 1011.0 |
| 20260508114548 | 2 | 0 | 0.0 | 0.0 | 0.00 | 0.00 | 0.00 | 92 | 1011.0 |
| 20260508113043 | 1 | 0 | 0.0 | 3.2 | 0.00 | 0.00 | 0.00 | 92 | 1010.8 |
| 20260508111549 | 0 | 0 | 0.0 | 0.0 | 0.00 | 0.00 | 0.00 | 90 | 1010.7 |
| 20260508110049 | 0 | 0 | 0.0 | 0.0 | 0.00 | 0.00 | 0.00 | 90 | 1010.6 |
| 20260508104558 | 0 | 0 | 0.0 | 0.0 | 0.00 | 0.00 | 0.00 | 89 | 1010.6 |
| 20260508103049 | 0 | 0 | 0.0 | 0.0 | 0.00 | 0.00 | 0.00 | 90 | 1010.4 |
| 20260508101548 | 0 | 0 | 0.0 | 0.0 | 0.00 | 0.00 | 0.00 | 89 | 1010.5 |
| 20260508100047 | 0 | 0 | 0.0 | 0.0 | 0.00 | 0.00 | 0.00 | 88 | 1010.7 |
| 20260508094548 | 0 | 0 | 0.0 | 1.6 | 0.00 | 0.00 | 0.00 | 89 | 1010.6 |
| 20260508093055 | 0 | 0 | 0.0 | 0.0 | 0.00 | 0.00 | 0.00 | 88 | 1010.7 |
| 20260508091559 | 1 | 0 | 0.0 | 3.2 | 0.00 | 0.00 | 0.00 | 87 | 1010.7 |
| 20260508084549 | 1 | 194 | 0.0 | 3.2 | 0.00 | 0.00 | 0.00 | 87 | 1010.6 |
| 20260508083049 | 1 | 0 | 0.0 | 3.2 | 0.00 | 0.00 | 0.00 | 88 | 1010.7 |
| 20260508081558 | 1 | 0 | 0.0 | 3.2 | 0.00 | 0.00 | 0.00 | 88 | 1010.6 |
| 20260508080055 | 1 | 0 | 0.0 | 3.2 | 0.00 | 0.00 | 0.00 | 87 | 1010.8 |